Showing default

VIASAT 3-F2, 66454

Orbit data source: Space-Track

VIASAT 3-F2, 66454 is a payload satellite owned by ViaSat (US) in GEO that was launched on Thu, 13 Nov 2025 UTC via an ATLAS V 551 launch vehicle from the Air Force Eastern Test Range (AFETR). Payload-class satellites include a variety of spacecraft equipped with specific instruments for various scientific and technological missions. These include communications satellites like Starlink; space stations such as the ISS; scientific satellites like the Hubble; Earth observation satellites from companies like Planet Labs, Umbra, and HawkEye 360; GPS; miniature CubeSats for education and research; and military/defense satellites.

Loading next visibility...
Identifier
66454, 2025-261A
Orbit
GEO
Country
Flag of USUS
Related business
Manufacturer
Boeing/ES
Mission
Operational Commercial Communications
Bus & Motor
BSS-702MP+, R-4D
Mass
6,400 kg wet, 3,500 kg dry
Launch date (UTC)
2025-11-13 (7 months ago)
Launch vehicle
ATLAS V 551
Launch site
Air Force Eastern Test Range (AFETR)
Object type
Payload
Rocket body
Debris
Shape & HBR
Box + 2 Pan + 1 Rod + 1 Dish, 14.5 m
Radar Cross Section
58.453 m², Large (>1 m²)

Expand to show TLE details & history
Last TLE update: 1 day ago

TLE from 1 day ago
0 VIASAT 3-F2
1 66454U 25261A   26170.87735519 -.00000239  00000-0  00000-0 0  9997
2 66454   0.0363 174.4747 0000048 277.7870  52.7047  1.00270370  2820
Epoch: 2026-06-19T21:03Z
TLE epoch observation values (Epoch: 2026-06-19T21:03:23.488Z)
Latitude
0.01379°
Longitude
-78.96839°
Altitude
35,786.357 km
Speed
3.075 km/s
True Right ascension
09h 39m 55s
True Declination
0° 00' 50"
Sunlit
Object was in daylight at epoch
Visualization orbit readout
Latitude
Unknown
Longitude
Unknown
Altitude
Unknown
Speed
Unknown
Apparent Right ascension
Unknown
Apparent Declination
Unknown
Sunlit
N/A
Visualization observer readout
Local Sidereal Time
08:42:24
Azimuth
Unknown
Elevation
Unknown
Doppler factor
Unknown
Orbital elements
Apogee altitude
35,788.264 km
Perigee altitude
35,787.86 km
Semi-major axis
42,166.199 km
Eccentricity
0
Inclination
0.0363°
RAAN
174.4747°
Arg. of periapsis
277.787°
True anomaly
52.70514°
Mean anomaly
52.7047°
Eccentric anomaly
52.70492°
Mean motion
0.25067 °/min
Orbital period
1,436.17 mins
BSTAR
0
Loading maneuver chart data...
Computing Atmospheric mass density...
Loading historical data...
Loading historical data...
Loading historical data...
Loading historical data...
Loading historical data...
Loading historical data...
Loading historical data...
Other satellites on launch #261 in the year 2025 (2025-11-13 UTC)

Documentation

Showing up to 5 results
|